This is the latest recevied weather packets stored in our database for station/object EA7URS-13. If no packets are shown the sender has not sent any weather packets the latest 10 day(s).
| Time | Temp. | Humidity | Pressure | Rain* | Wind** | Luminosity | Snow |
|---|---|---|---|---|---|---|---|
| 1788510316 | 25° C | 81% | 1013.9 hPa | 0 mm | - | 147 W/m² | - |
| 1788510015 | 25° C | 81% | 1013.9 hPa | 0 mm | - | 147 W/m² | - |
| 1788509714 | 24.44° C | 82% | 1013.7 hPa | 0 mm | - | 214 W/m² | - |
| 1788509412 | 24.44° C | 82% | 1013.7 hPa | 0 mm | - | 214 W/m² | - |
| 1788509111 | 24.44° C | 82% | 1013.7 hPa | 0 mm | - | 128 W/m² | - |
| 1788508810 | 24.44° C | 82% | 1013.7 hPa | 0 mm | - | 128 W/m² | - |
| 1788508509 | 24.44° C | 84% | 1013.8 hPa | 0 mm | - | 120 W/m² | - |
| 1788508208 | 24.44° C | 84% | 1013.8 hPa | 0 mm | - | 120 W/m² | - |
| 1788507907 | 24.44° C | 83% | 1013.6 hPa | 0 mm | - | 148 W/m² | - |
| 1788507606 | 24.44° C | 83% | 1013.6 hPa | 0 mm | - | 148 W/m² | - |
| 1788507304 | 24.44° C | 84% | 1013.4 hPa | 0 mm | - | 132 W/m² | - |
| 1788507003 | 24.44° C | 84% | 1013.4 hPa | 0 mm | - | 132 W/m² | - |
| 1788506702 | 23.89° C | 84% | 1013.5 hPa | 0 mm | - | 125 W/m² | - |
| 1788506401 | 23.89° C | 84% | 1013.5 hPa | 0 mm | - | 125 W/m² | - |
| 1788506100 | 23.89° C | 85% | 1013.5 hPa | 0 mm | - | 68 W/m² | - |
| 1788505799 | 23.89° C | 85% | 1013.5 hPa | 0 mm | - | 68 W/m² | - |
| 1788505498 | 23.89° C | 85% | 1013.5 hPa | 0 mm | - | 67 W/m² | - |
| 1788505196 | 23.89° C | 85% | 1013.5 hPa | 0 mm | - | 67 W/m² | - |
| 1788504895 | 23.89° C | 85% | 1013.3 hPa | 0 mm | - | 69 W/m² | - |
| 1788504594 | 23.89° C | 85% | 1013.3 hPa | 0 mm | - | 69 W/m² | - |
| 1788504293 | 23.33° C | 86% | 1013.3 hPa | 0 mm | - | 57 W/m² | - |
| 1788503992 | 23.33° C | 86% | 1013.3 hPa | 0 mm | - | 57 W/m² | - |
| 1788503691 | 23.33° C | 86% | 1013.2 hPa | 0 mm | - | 38 W/m² | - |
| 1788503390 | 23.33° C | 86% | 1013.2 hPa | 0 mm | - | 38 W/m² | - |
| 1788503089 | 0° C | 1% | 1013.4 hPa | 0 mm | - | 22 W/m² | - |
* Rain latest hour (hover to see other rain measurements)
** Current wind speed in m/s (hover to see current wind gust speed)